Simultaneous Nadir Overpasses (SNOs) Predictions

Prediction of SNOs between METOP-A and TERRA Satellite Orbit:

Table of predicted SNOs for the next 14.0 days since TLE Epoch: 7/16/2016
Index Date (METOP-A) Time (METOP-A) Lat,Lon (METOP-A) SZA (METOP-A ) Date (TERRA) Time (TERRA) Lat,Lon (TERRA) SZA (TERRA ) Distance(km) Time Diff (sec)
1 07/17/2016 07:42:39 81.32, 111.75 62.98 07/17/2016 07:43:29 81.32, 111.75 63.00 0.41 50
2 07/17/2016 08:33:19 -81.33, -80.49 116.97 07/17/2016 08:32:56 -81.32, -80.65 117.01 2.87 23
3 07/20/2016 03:17:00 81.32, 178.33 63.50 07/20/2016 03:17:43 81.33, 178.39 63.53 1.12 43
4 07/20/2016 04:07:40 -81.33, -13.87 116.44 07/20/2016 04:07:10 -81.33, -13.98 116.47 1.90 30
5 07/22/2016 22:51:21 81.32,-115.50 64.02 07/22/2016 22:51:57 81.32,-115.37 64.05 2.20 36
6 07/22/2016 23:42:01 -81.33, 52.34 115.92 07/22/2016 23:41:24 -81.32, 52.29 115.95 1.33 37
7 07/25/2016 18:25:42 81.32, -48.95 64.63 07/25/2016 18:26:11 81.33, -48.77 64.67 3.16 29
8 07/25/2016 19:16:22 -81.33, 118.93 115.30 07/25/2016 19:15:38 -81.33, 118.91 115.33 0.36 44
9 07/28/2016 14:00:03 81.32, 17.57 65.28 07/28/2016 14:00:26 81.31, 17.43 65.27 2.65 23




NCC Satellite Simultaneous Nadir Overpasses (SNOs) Prediction Service
